Flag for U.S.A. Weather past 2 weeks in Jackson, Mississippi, U.S.A.

Now
87 °F

Sunny.


Feels Like: 87 °F
Forecast: 70 / 92 °F
Wind: 8 mph from Northeast

Location: Hawkins Field

Current Time: Aug 1, 2015 at 12:05:33 PM

Latest Report: Aug 1, 2015 at 10:53 AM


Visibility: 10 mi

Pressure: 29.98 "Hg

Humidity: 42%

Dew point: 61 °F

Location of JacksonLocation

Historic Weather in Jackson — Graph

°F

Jackson temperature yesterday

Maximum temperature yesterday: 94 °F (at 3:53 PM)
Minimum temperature yesterday: 73 °F (at 5:53 AM)
Average temperature yesterday: 83 °F

Past Weeks' High & Low Weather Summary

 TemperatureHumidityPressure
High99 °F (Jul 27, 3:53 PM)94% (Jul 26, 2:53 AM)30.04 "Hg (Jul 26, 2:53 AM)
Low73 °F (Jul 31, 5:53 AM)25% (Jul 31, 4:53 PM)29.84 "Hg (Jul 21, 5:53 PM)
Average86 °F64%29.95 "Hg
* Reported Jul 17 10:53 AM — Aug 1 10:53 AM, Jackson, Weather by CustomWeather, © 2015

Note: Actual official high and low records may vary slightly from our data, if they occured in-between our weather recording intervals... More about our weather records

Advertising

Jackson weather history for previous 24 hours

 ConditionsComfort  
Time TempWeatherWind HumidityBarometerVisibility
10:53 AM
Sat, Aug 1
87 °FSunny.8 mph42%29.98 "Hg10 mi
9:53 AM84 °FSunny.7 mph48%29.98 "Hg10 mi
8:53 AM81 °FSunny.5 mph54%29.98 "Hg10 mi
7:53 AM76 °FSunny.6 mph67%29.97 "Hg10 mi
6:53 AM73 °FClear.5 mph74%29.96 "Hg10 mi
5:53 AM73 °FClear.5 mph74%29.96 "Hg10 mi
4:53 AM74 °FClear.6 mph71%29.95 "Hg10 mi
3:53 AM75 °FClear.5 mph69%29.95 "Hg10 mi
2:53 AM77 °FClear.5 mph64%29.94 "Hg10 mi
1:53 AM77 °FClear.3 mph64%29.95 "Hg10 mi
12:53 AM78 °FClear.3 mph60%29.97 "Hg10 mi
11:53 PM
Fri, Jul 31
79 °FClear.3 mph56%29.98 "Hg10 mi
10:53 PM80 °FClear.3 mph54%29.96 "Hg10 mi
9:53 PM83 °FClear.3 mph48%29.96 "Hg10 mi
8:53 PM84 °FSunny.5 mph46%29.96 "Hg10 mi
7:53 PM88 °FSunny.6 mph35%29.93 "Hg10 mi
6:53 PM91 °FSunny.10 mph32%29.91 "Hg10 mi
5:53 PM93 °FSunny.10 mph25%29.92 "Hg10 mi
4:53 PM94 °FSunny.10 mph25%29.93 "Hg10 mi
3:53 PM94 °FSunny.9 mph26%29.95 "Hg10 mi
2:53 PM93 °FSunny.6 mph28%29.97 "Hg10 mi
1:53 PM92 °FSunny.10 mph30%29.99 "Hg10 mi
12:53 PM90 °FSunny.9 mph32%30.01 "Hg10 mi
Weather by CustomWeather, © 2015

See weather overviewHow to use our weather pages